Location: Unspecified
(52.4292°N, 19.3359°E)
Time: 16:37:42
(UTC+02:00)

Transit 2A Rocket - Pass Details

Date: 24 May 2024
Orbit: 583 x 910 km, 66.7° (Epoch: 14 June)

Event Time Altitude Azimuth Distance (km) Brightness Sun altitude
Rises 10:57:01 0° 319° (NW) 3,344 7.9 52.8°
Reaches altitude 10° 10:59:33 10° 327° (NNW) 2,456 7.4 53.0°
Maximum altitude 11:04:57 41° 37° (NE) 1,254 6.5 53.6°
Drops below altitude 10° 11:10:38 10° 107° (ESE) 2,581 8.3 54.1°
Sets 11:13:20 0° 114° (ESE) 3,532 8.9 54.3°
